Regional Weather Roundup
Issued by NWS

Home | Current Version | Previous Version | Text Only | Print | Product List | Glossary Off
Versions: 1 2 3 4 5 6 7 8 9 10 11 12 13 14 15 16 17 18 19 20 21 22 23 24 25 26 27 28 29 30 31 32 33 34 35 36 37 38 39 40 41 42 43 44 45 46 47 48 49 50

000
ASUS45 KSLC 221010
RWRUT

UTAH REGIONAL WEATHER ROUNDUP
NATIONAL WEATHER SERVICE SALT LAKE CITY UT
400 AM MDT FRI AUG 22 2014

UTZ001>011-023>025-221100-

NORTHERN UTAH

CITY           SKY/WX    TMP DP  RH WIND       PRES   REMARKS
HILL AFB       CLOUDY    64  49  58 E18       30.02S
LOGAN          MOCLDY    58  54  86 NW7       30.06S
OGDEN          MOCLDY    63  52  67 CALM      30.00S
PROVO AIRPORT    N/A     59  48  67 SE8       30.05F
SALT LAKE CITY MOCLDY    65  49  56 S6        29.98S
VERNAL         MOCLDY    58  48  69 W3        30.13S
WENDOVER         N/A     66  46  48 W6        29.99S
HEBER CITY       N/A     48  45  87 SE5       30.12R
WEST JORDAN    PTCLDY    70  54  56 SE13      30.01F

$$

UTZ012>022-026-027-221100-

SOUTHERN UTAH

CITY           SKY/WX    TMP DP  RH WIND       PRES   REMARKS
BRYCE CANYON     N/A     46  44  93 W7        30.29S
CEDAR CITY       N/A     54  48  80 CALM      30.15S
MILFORD          N/A     60  50  69 S12       30.10S
MOAB/CYNLANDS  CLEAR     66  53  63 CALM      30.04R
PRICE            N/A     60  44  55 NE6       30.13R
ST GEORGE        N/A     68  52  56 SE10      30.05R
KANAB          CLOUDY    61  52  72 NW8       30.18S

$$

REGIONAL REPORTS     COLORADO/ARIZONA

CITY           SKY/WX    TMP DP  RH WIND       PRES   REMARKS
CRAIG, CO      CLOUDY    54  49  83 CALM      30.21S
GRAND JUNCTION CLOUDY    68  48  48 E9        30.08S
RIFLE          LGT RAIN  62  49  62 CALM      30.16R
MONTROSE       LGT RAIN  60  53  77 SE8       30.23R
CORTEZ         CLOUDY    58  52  80 E16       30.23F
PAGE, AZ         N/A     66  56  70 CALM      30.11S
GRAND CANYON     N/A    N/A N/A N/A MISG        N/A
KINGMAN          N/A     62  55  77 S5        30.06S
FLAGSTAFF      RAIN      53  51  93 CALM      30.27S FOG

$$

REGIONAL REPORTS    NEVADA/IDAHO/WYOMING

CITY           SKY/WX    TMP DP  RH WIND       PRES   REMARKS
LAS VEGAS, NV    N/A     73  52  47 S6        29.94S
ELY              N/A     59  44  57 SW17      30.14R
ELKO             N/A     55  44  66 CALM      30.01R
POCATELLO, ID  MOCLDY    60  53  77 SE12      30.01F
BURLEY         LGT RAIN  59  55  87 N7        29.99S
EVANSTON, WY   MOCLDY    51  47  86 N7        30.21R
ROCK SPRINGS   PTCLDY    54  39  57 W3        30.16F

$$



USA.gov is the U.S. government's official web portal to all federal, state and local government web resources and services.